Location: Tucson
(32.2217°N, 110.9265°W)
Time: 06:14:03
(UTC-07:00)

A-11 Canister half - All Passes

Search period start: 25 October 2021 00:00
Search period end: 04 November 2021 00:00
Orbit: 1525 x 1684 km, 47.3° (Epoch: 24 October)

Date Brightness Start Highest point End Pass type
(mag) Time Alt. Az. Time Alt. Az. Time Alt. Az.
25 Oct - 10:12:19 10° SSW 10:20:53 36° SE 10:29:13 10° ENE daylight
25 Oct - 12:15:53 10° WSW 12:25:28 71° NW 12:34:49 10° NE daylight
25 Oct - 14:23:28 10° WNW 14:31:50 34° NNW 14:40:07 10° NE daylight
25 Oct - 16:30:51 10° NW 16:39:14 36° NNE 16:47:35 10° ENE daylight
25 Oct - 18:36:05 10° NW 18:45:25 77° NE 18:54:51 10° ESE visible
25 Oct - 20:41:58 10° WNW 20:49:48 31° SW 20:57:46 10° S visible
26 Oct - 09:50:50 10° S 09:59:16 34° SE 10:07:27 10° ENE daylight
26 Oct - 11:54:08 10° WSW 12:03:47 74° NW 12:13:10 10° NE daylight
26 Oct - 14:01:38 10° WNW 14:10:05 35° NNW 14:18:24 10° NE daylight
26 Oct - 16:09:07 10° NW 16:17:28 35° NNE 16:25:47 10° ENE daylight
26 Oct - 18:14:25 10° NW 18:23:44 74° NE 18:33:08 10° ESE visible
26 Oct - 20:20:11 10° WNW 20:28:11 33° SW 20:36:20 10° S visible
27 Oct - 09:29:21 10° S 09:37:38 32° SE 09:45:40 10° ENE daylight
27 Oct - 11:32:25 10° WSW 11:42:05 77° NW 11:51:30 10° NE daylight
27 Oct - 13:39:48 10° WNW 13:48:19 36° NNW 13:56:42 10° NE daylight
27 Oct - 15:47:24 10° NW 15:55:42 34° NNE 16:03:57 10° ENE daylight
27 Oct - 17:52:46 10° NW 18:02:03 71° NE 18:11:24 10° ESE visible
27 Oct - 19:58:25 10° WNW 20:06:34 36° SW 20:14:52 10° SSE visible
28 Oct - 09:07:54 10° S 09:16:00 30° SE 09:23:52 10° ENE daylight
28 Oct - 11:10:41 10° SW 11:20:24 80° NW 11:29:51 10° NE daylight
28 Oct - 13:17:58 10° W 13:26:33 36° NNW 13:35:00 10° NE daylight
28 Oct - 15:25:39 10° NW 15:33:56 34° N 15:42:08 10° ENE daylight
28 Oct - 17:31:06 10° NW 17:40:22 68° NE 17:49:41 10° ESE daylight
28 Oct - 19:36:39 10° WNW 19:44:57 38° SW 19:53:23 10° SSE visible
29 Oct - 08:46:29 10° S 08:54:23 28° SE 09:02:04 10° ENE daylight
29 Oct - 10:48:58 10° SW 10:58:44 84° NW 11:08:12 10° NE daylight
29 Oct - 12:56:08 10° W 13:04:47 37° NNW 13:13:18 10° NE daylight
29 Oct - 15:03:55 10° NW 15:12:10 33° N 15:20:20 10° ENE daylight
29 Oct - 17:09:26 10° NW 17:18:41 65° NNE 17:27:57 10° ESE daylight
29 Oct - 19:14:55 10° WNW 19:23:20 40° SW 19:31:53 10° SSE visible
30 Oct - 08:25:05 10° S 08:32:45 26° SE 08:40:14 10° ENE daylight
30 Oct - 10:27:15 10° SW 10:37:03 87° NW 10:46:32 10° NE daylight
30 Oct - 12:34:17 10° W 12:43:02 38° NNW 12:51:36 10° NE daylight
30 Oct - 14:42:09 10° NW 14:50:24 33° N 14:58:32 10° ENE daylight
30 Oct - 16:47:46 10° NW 16:57:00 62° NNE 17:06:12 10° ESE daylight
30 Oct - 18:53:10 10° WNW 19:01:43 43° SW 19:10:22 10° SSE visible
31 Oct - 08:03:42 10° S 08:11:08 25° SE 08:18:22 10° ENE daylight
31 Oct - 10:05:33 10° SW 10:15:22 89° SE 10:24:52 10° NE daylight
31 Oct - 12:12:26 10° W 12:21:16 39° NNW 12:29:55 10° NE daylight
31 Oct - 14:20:24 10° NW 14:28:37 32° N 14:36:44 10° ENE daylight
31 Oct - 16:26:06 10° NW 16:35:18 60° NNE 16:44:28 10° ESE daylight
31 Oct - 18:31:26 10° WNW 18:40:05 46° SW 18:48:51 10° SSE visible
01 Nov - 07:42:20 10° S 07:49:30 23° SE 07:56:30 10° ENE daylight
01 Nov - 09:43:51 10° SW 09:53:42 85° SE 10:03:13 10° NE daylight
01 Nov - 11:50:36 10° W 11:59:31 41° NNW 12:08:13 10° NE daylight
01 Nov - 13:58:37 10° NW 14:06:50 32° N 14:14:56 10° ENE daylight
01 Nov - 16:04:25 10° NW 16:13:36 57° NNE 16:22:43 10° ESE daylight
01 Nov - 18:09:42 10° WNW 18:18:28 48° SW 18:27:19 10° SSE visible
02 Nov - 07:21:00 10° S 07:27:53 21° SE 07:34:35 10° E daylight
02 Nov - 09:22:10 10° SW 09:32:01 82° SE 09:41:32 10° NE daylight
02 Nov - 11:28:46 10° W 11:37:46 42° NNW 11:46:33 10° NE daylight
02 Nov - 13:36:50 10° NW 13:45:04 32° N 13:53:09 10° ENE daylight
02 Nov - 15:42:45 10° NW 15:51:53 55° NNE 16:00:58 10° ESE daylight
02 Nov - 17:47:59 10° WNW 17:56:50 51° SW 18:05:46 10° SSE visible
03 Nov - 06:59:43 10° SSE 07:06:15 20° SE 07:12:39 10° E daylight
03 Nov - 09:00:29 10° SW 09:10:20 78° SE 09:19:52 10° NE daylight
03 Nov - 11:06:56 10° W 11:16:01 43° NNW 11:24:52 10° NE daylight
03 Nov - 13:15:03 10° WNW 13:23:17 32° N 13:31:22 10° ENE daylight
03 Nov - 15:21:04 10° NW 15:30:11 53° NNE 15:39:12 10° ESE daylight
03 Nov - 17:26:16 10° WNW 17:35:13 54° SW 17:44:12 10° SSE daylight
